[ ตารางข้อมูล ] [ Min-Max ] [ วันนี้4 ] [ วันนี้2 ] [ เทียบ3วัน A ] [ เทียบ4วัน B ]   

วันนี้2   [ ◀ ช่วงเก่ากว่า ] [ ช่วงที่ 195 ] [ ช่วงใหม่กว่า ▶ ] [ ล่าสุด ]    [ 3 ชั่วโมง ] [ 6 ชั่วโมง ] [ 12 ชั่วโมง ] [ 24 ชั่วโมง ]   วันนี้2

อุณภูมิตู้ Knockdown4529  ราย 6 ชั่วโมง  ที่วัดได้ ในช่วงวันเวลา 16/03/2026 (11:46) ถึง 16/03/2026 (17:46) 
ความชื้นในตู้ Knockdown4529  ราย 6 ชั่วโมง  ที่วัดได้ ในช่วงวันเวลา 16/03/2026 (11:46) ถึง 16/03/2026 (17:46) 

 
DS18B20SHTC3 
IDDate d/m/Y & Timedata1
สูง
data2
ต่ำ
data3
นอก
temp
pcb
hum
pcb
Time
 3069  16/03/2026 17:45:05  29.6  29.8  28.9  29.9  71.2  17:45 
 3068  16/03/2026 17:40:24  29.6  29.8  29.0  29.8  71.4  17:40 
 3067  16/03/2026 17:35:43  29.7  29.9  29.0  30.1  70.7  17:35 
 3066  16/03/2026 17:31:01  29.8  29.9  29.2  30.0  70.6  17:31 
 3065  16/03/2026 17:26:19  29.9  29.9  29.4  30.1  70.8  17:26 
 3064  16/03/2026 17:21:38  30.2  30.0  29.5  30.1  70.7  17:21 
 3063  16/03/2026 17:16:56  30.2  29.9  29.4  30.2  70.8  17:16 
 3062  16/03/2026 17:12:14  30.2  30.1  29.5  30.1  70.0  17:12 
 3061  16/03/2026 17:07:32  30.3  30.2  29.4  30.1  69.5  17:07 
 3060  16/03/2026 17:02:50  30.3  30.4  29.5  30.4  69.9  17:02 
 3059  16/03/2026 16:58:09  30.5  30.5  29.5  30.4  70.0  16:58 
 3058  16/03/2026 16:53:27  30.5  30.5  29.9  30.4  69.8  16:53 
 3057  16/03/2026 16:48:46  30.6  30.6  29.8  30.4  69.8  16:48 
 3056  16/03/2026 16:44:04  30.6  30.6  29.7  30.5  69.9  16:44 
 3055  16/03/2026 16:39:22  30.6  30.6  29.5  30.5  69.8  16:39 
 3054  16/03/2026 16:34:41  30.6  30.6  29.7  30.6  69.7  16:34 
 3053  16/03/2026 16:29:59  30.7  30.6  29.7  30.5  69.6  16:29 
 3052  16/03/2026 16:25:17  30.7  30.6  30.0  30.5  69.5  16:25 
 3051  16/03/2026 16:20:36  30.8  30.6  30.0  30.6  69.3  16:20 
 3050  16/03/2026 16:15:54  30.8  30.7  30.2  30.5  69.1  16:15 
 3049  16/03/2026 16:11:13  30.8  30.7  30.4  30.6  69.2  16:11 
 3048  16/03/2026 16:06:30  30.8  30.7  30.6  30.6  69.0  16:06 
 3047  16/03/2026 16:01:48  30.9  30.7  30.5  30.7  69.2  16:01 
 3046  16/03/2026 15:57:06  30.9  30.8  30.5  30.7  69.2  15:57 

Data every 5 minute.


ใช้เวลาประมวลผล 0.00313 วินาที